STARLINK-35577

Last updated on Thu Dec 18 2025 00:02:05 GMT+0000 (Coordinated Universal Time)

1 66538U 25265Y 25351.41002468 .00089538 00000+0 15140-2 0 9994 2 66538 43.0010 26.6049 0001392 263.8064 96.2638 15.50591082 4485
UTC large
Height (km)
Speed (km/s)
/
Latitude / Longitude
Inclination (degrees)
Orbital Period (minutes)
Azimuth
Elevation
Range (km)
Doppler Factor

Next 0 passes for location: London (51.5072 / 0.1276)

Sorry there are no passes over London.